{"data":{"norad_id":64316,"intl_designator":"2025-123AB","name":"STARLINK-33590","alt_names":[],"object_type":"PAYLOAD","status":"ACTIVE","operator":null,"country":"US","launch_date":"2025-06-08","launch_site_code":"AFWTR","launch_vehicle":null,"mission":null,"orbit_class":"UNKNOWN","rcs_meters":null,"size_class":null,"mass_kg":null,"dimensions":null,"purposes":["comms"],"wikipedia_slug":null,"has_3d_model":false,"image_url":null,"decayed_at":null,"tle_current":{"epoch":"2026-09-20T13:52:45.780960Z","epoch_age_seconds":130920,"freshness":"FRESH","line1":"1 64316U 25123AB  26263.57830765  .00010203  00000+0  35872-3 0  9996","line2":"2 64316  69.9991  60.5675 0003624 263.7600  96.3162 15.29594153 70876","mean_motion":15.29594153,"eccentricity":0.0003624,"inclination_deg":69.9991,"raan_deg":60.5675,"arg_perigee_deg":263.76,"mean_anomaly_deg":96.3162,"bstar":0.00035872,"rev_number":7087,"period_min":94.142619280789,"perigee_km":474.54030583996,"apogee_km":479.50892697953,"semimajor_km":6855.1616164097,"source":"CELESTRAK","updated_at":"2026-09-21T09:00:35.310274Z"}}}